AVUM DEB (ADAPTOR), 39162

Orbit data source: Space-Track

AVUM DEB (ADAPTOR), 39162 is space debris in SSO originally from a launch on Tue, 07 May 2013 UTC launched from the French Guiana (FRGUI). Debris objects in space refer to the collection of defunct objects orbiting the Earth. Examples of debris include non-operational satellites, rocket bodies, and fragments generated from explosions, collisions, or faulty payload assembly.

Loading next visibility...
Identifier
39162, 2013-021D
Orbit
SSO
Country
Flag of ESAESA
Related business
Manufacturer
Astrium Barajas
Mission
Spacecraft
Bus & Motor
VESPA, Unknown motor
Mass
~100 kg wet, ~100 kg dry
Launch date (UTC)
2013-05-07 (13 years ago)
Launch vehicle
Unknown
Launch site
French Guiana (FRGUI)
Object type
Payload
Rocket body
Debris
Shape & HBR
Cyl + Cone, 1.1 m
Radar Cross Section
3.876 m², Large (>1 m²)

Expand to show TLE details & history
Last TLE update: 2 days ago

TLE from 2 days ago
0 AVUM DEB (ADAPTOR)
1 39162U 13021D   26171.44203314  .00001492  00000-0  32482-3 0  9994
2 39162  98.8024 147.4898 0083089   8.6314 351.6289 14.57515605693983
Epoch: 2026-06-20T10:36Z
TLE epoch observation values (Epoch: 2026-06-20T10:36:31.663Z)
Latitude
-0.00004°
Longitude
79.70128°
Altitude
645.974 km
Speed
7.566 km/s
True Right ascension
09h 49m 57s
True Declination
0° 00' 00"
Sunlit
Object was in daylight at epoch
Visualization orbit readout
Latitude
Unknown
Longitude
Unknown
Altitude
Unknown
Speed
Unknown
Apparent Right ascension
Unknown
Apparent Declination
Unknown
Sunlit
N/A
Visualization observer readout
Local Sidereal Time
23:08:03
Azimuth
Unknown
Elevation
Unknown
Doppler factor
Unknown
Orbital elements
Apogee altitude
757.118 km
Perigee altitude
639.523 km
Semi-major axis
7,076.457 km
Eccentricity
0.00831
Inclination
98.8024°
RAAN
147.4898°
Arg. of periapsis
8.6314°
True anomaly
351.48885°
Mean anomaly
351.6289°
Eccentric anomaly
351.55902°
Mean motion
3.64602 °/min
Orbital period
98.74 mins
BSTAR
0.00032482
Loading maneuver chart data...
Computing Atmospheric mass density...
Loading historical data...
Loading historical data...
Loading historical data...
Loading historical data...
Loading historical data...
Loading historical data...
Loading historical data...

Documentation

Showing up to 5 results
|